GFSNW_850_thetae_000.txt.gz
Theta_e
306 305 305 303 301 301 301 313 314 319 320 319 319 320 320 320 321 321 321 320 321 320 320 322 322 323 324 323 323 323 322 323 323 321 321 319 319 320 321 320 320 321 321 322
306 305 306 306 305 302 299 311 312 316 318 317 316 316 316 317 320 322 320 320 321 321 322 323 322 322 321 321 323 323 322 323 323 323 321 320 320 320 319 320 319 321 321 322
305 306 306 306 306 305 301 309 309 311 316 316 317 317 317 318 318 318 320 320 321 322 323 322 322 322 322 318 321 323 322 322 322 323 323 322 320 320 320 320 321 320 321 321
306 306 306 302 305 306 306 308 309 311 309 311 312 311 312 313 314 315 316 316 316 319 321 322 323 323 321 321 320 321 322 322 321 322 322 323 324 322 320 320 321 321 321 321
301 305 306 305 302 305 309 308 308 308 307 308 307 307 307 308 310 312 313 315 315 316 317 319 320 319 319 320 318 315 317 323 322 321 321 322 322 323 323 320 320 320 321 321
304 302 304 305 305 303 308 308 307 306 307 307 307 308 308 308 307 307 307 308 309 314 315 314 313 314 314 313 313 310 311 315 320 325 322 322 323 323 323 323 321 320 321 320
304 305 303 305 305 305 304 304 307 308 307 307 307 307 307 307 307 308 307 307 307 307 307 308 309 310 311 311 313 313 312 314 314 319 324 327 323 322 323 323 323 321 321 321
301 302 305 303 301 304 305 305 305 306 308 306 307 306 307 307 306 307 306 307 307 309 309 310 311 310 310 311 312 313 314 316 318 321 323 325 324 323 323 322 322 322 321 320
302 302 303 304 304 301 300 301 305 305 305 306 305 307 307 307 307 307 307 306 305 307 310 311 310 311 311 311 311 316 316 318 319 319 324 328 324 322 321 319 321 320 320 321
297 300 302 302 303 303 301 302 303 305 306 305 305 306 306 306 307 307 306 305 306 306 310 311 310 310 309 309 310 310 313 314 315 314 314 320 321 321 321 321 321 319 319 319
297 295 298 301 302 302 302 300 302 305 306 306 305 305 305 306 306 306 306 306 306 306 307 308 308 309 309 310 310 312 313 313 313 315 315 318 315 316 318 315 313 313 315 317
296 295 295 298 301 300 302 301 300 303 305 304 304 304 305 306 306 306 306 306 306 306 307 308 308 308 307 307 308 306 309 314 314 314 316 312 311 315 312 311 313 312 311 313
301 299 298 297 299 300 300 302 301 303 304 304 303 302 303 305 305 305 305 305 305 306 306 306 307 308 306 307 307 306 307 308 311 310 311 311 312 311 310 311 312 314 310 310
300 296 295 299 299 299 299 301 301 301 304 304 303 304 304 304 305 305 305 305 305 305 305 306 305 307 306 306 306 306 306 307 308 308 308 310 310 310 311 312 313 313 312 313
299 299 298 297 297 298 299 300 300 301 303 303 303 303 302 303 304 305 305 305 306 306 305 305 305 305 306 305 305 305 305 307 309 311 310 310 309 309 310 314 314 314 314 313
301 301 300 300 299 298 300 301 301 302 303 305 304 304 304 304 304 304 305 305 305 305 305 305 305 305 305 307 306 305 305 305 306 306 306 306 307 307 308 310 309 314 314 314
301 301 301 299 298 299 301 301 301 302 302 302 302 303 304 304 304 304 305 305 305 305 305 305 302 305 304 305 305 304 303 304 304 305 307 307 307 308 309 309 311 311 313 314
300 298 299 299 300 300 301 301 302 303 303 303 302 304 304 304 305 305 305 305 305 304 303 303 304 303 304 304 304 304 304 304 304 304 305 306 306 308 308 309 311 312 312 312
300 300 300 301 303 303 304 302 301 302 303 301 300 305 307 303 303 304 304 304 304 303 304 304 303 304 304 304 304 304 304 304 305 305 306 307 308 308 307 309 311 311 311 311
300 302 303 303 303 302 301 301 302 301 301 300 301 300 306 303 304 304 302 300 303 305 303 303 304 303 303 303 304 304 304 305 305 306 306 305 306 307 307 307 307 308 310 309
301 302 302 301 300 299 301 302 302 302 302 301 302 302 302 303 304 304 301 305 304 304 305 304 305 304 304 304 305 306 306 305 306 304 303 302 303 305 306 307 307 309 310 308
300 300 300 300 300 300 301 302 303 302 303 303 302 302 301 302 302 304 301 304 304 305 304 304 304 302 303 304 303 303 303 304 304 303 303 302 303 303 305 305 306 310 311 310
300 299 300 299 300 301 302 303 304 305 303 302 302 302 301 302 301 302 303 303 303 304 304 304 302 304 304 304 305 304 304 303 301 301 302 303 303 303 305 305 306 310 309 307
300 299 300 301 303 302 303 303 303 302 301 301 301 302 301 301 301 302 303 303 303 303 303 302 303 304 304 304 304 303 303 303 300 299 301 302 303 303 303 305 305 308 309 308
299 299 301 302 302 302 302 302 302 301 301 301 301 301 301 302 301 301 303 303 303 303 303 304 304 303 303 302 302 302 302 301 298 297 298 300 301 302 301 302 302 303 303 300
299 298 299 300 302 302 302 302 301 301 301 299 300 300 301 302 302 303 303 303 303 304 304 304 303 302 302 301 301 301 300 297 296 297 297 299 300 299 298 298 299 299 300 299
298 298 298 299 299 300 300 300 299 299 298 299 300 301 301 302 304 303 303 303 303 303 303 303 302 301 300 300 301 300 297 295 296 295 297 297 297 297 297 297 298 297 297 297

GFSNW_850_thetae_003.txt.gz
Theta_e
303 303 302 301 302 303 303 313 312 318 318 318 316 313 316 316 315 316 318 319 319 319 319 319 319 319 319 320 319 320 319 318 319 319 317 317 317 318 319 320 317 317 319 319
301 302 302 301 302 303 303 308 309 313 314 313 311 313 315 315 317 317 319 321 321 321 322 322 320 321 321 319 320 322 322 322 321 321 318 317 317 317 317 318 314 318 320 320
298 301 301 301 301 303 305 308 303 310 313 314 313 311 309 310 309 311 312 313 316 318 318 318 322 321 321 320 319 319 319 323 323 322 320 319 318 318 318 317 319 320 319 319
300 299 299 300 300 302 307 308 307 307 306 307 305 305 305 305 305 307 308 309 310 308 312 316 317 317 316 316 316 313 314 321 321 317 316 319 320 320 319 318 318 319 319 318
303 305 303 303 303 301 308 307 306 306 305 306 304 304 304 306 307 306 306 306 307 306 306 307 308 311 313 315 313 312 312 313 311 311 313 315 316 318 319 319 319 319 319 319
298 300 305 303 304 302 304 305 306 306 305 305 304 304 306 307 306 306 306 306 306 306 306 307 308 308 309 311 311 311 311 312 311 311 312 312 313 317 321 322 319 319 319 319
297 299 301 304 304 302 303 305 305 305 305 304 305 306 306 307 306 305 306 306 305 306 306 307 308 308 308 310 311 312 311 310 312 312 312 315 313 320 321 323 323 320 319 319
298 298 299 303 304 305 304 301 303 304 304 303 304 304 305 305 305 306 306 305 306 306 306 307 307 306 306 307 307 307 307 310 314 315 316 315 315 318 317 319 319 318 319 320
297 297 296 298 303 303 304 303 301 304 305 304 304 304 305 304 304 304 305 306 305 305 306 306 301 307 306 307 307 308 309 309 312 313 316 315 313 315 315 314 323 314 313 313
297 296 295 295 298 302 303 303 303 303 304 303 304 304 305 305 305 306 306 306 306 305 304 305 305 305 306 305 305 305 306 307 310 311 313 313 312 312 313 318 317 311 310 311
297 298 299 298 296 296 301 301 301 303 303 302 302 303 304 304 305 305 304 305 304 303 304 304 303 303 306 308 307 306 307 307 308 308 311 311 313 315 317 314 309 309 308 308
299 301 301 302 296 297 299 300 299 300 302 303 303 302 302 304 305 305 305 305 305 305 304 303 303 302 302 304 306 305 305 306 305 307 307 307 306 307 312 311 309 309 309 309
299 300 299 299 298 296 299 299 299 299 301 301 302 302 301 303 303 304 305 304 305 305 305 305 305 305 303 304 304 303 304 304 306 306 306 306 307 306 307 308 308 309 311 312
298 299 300 301 301 301 299 299 298 298 300 301 300 301 301 301 302 303 304 304 305 305 305 305 305 305 304 306 304 304 304 304 304 303 304 304 306 308 309 308 309 309 310 313
301 302 301 301 301 301 301 301 299 299 300 300 300 300 301 301 302 302 303 304 305 305 305 305 305 304 305 304 301 303 303 303 303 303 303 303 305 305 305 306 306 308 309 310
301 301 301 300 300 300 301 300 300 302 302 302 301 300 300 300 300 301 301 303 303 304 305 305 304 304 304 305 305 304 303 303 303 303 304 305 305 305 305 305 307 308 308 309
300 300 299 300 300 301 301 300 300 301 301 300 300 298 302 304 303 303 303 303 304 304 305 305 304 304 304 304 305 303 304 304 303 303 303 303 303 303 304 304 305 306 307 309
299 299 299 299 300 301 301 301 302 302 302 303 301 302 302 303 304 304 304 304 305 304 304 303 304 303 303 302 302 302 303 303 303 303 304 304 304 304 304 305 306 308 308 307
299 299 300 301 302 302 303 303 302 300 301 302 300 301 301 302 302 302 304 304 304 303 304 303 303 303 304 302 302 302 302 302 303 303 304 305 305 305 305 305 306 306 307 307
300 301 302 302 303 302 300 300 302 301 300 300 299 300 300 300 300 301 302 301 303 304 300 302 303 303 303 303 303 302 302 304 304 305 305 304 303 302 302 303 303 304 305 306
300 301 301 301 301 300 301 301 300 300 299 299 300 301 301 301 302 303 300 302 299 301 299 300 301 301 302 303 303 304 304 304 303 303 302 301 301 302 303 302 303 303 305 305
299 299 299 298 300 299 300 300 301 297 301 301 301 301 300 300 301 302 302 303 303 303 300 303 301 300 303 303 303 303 302 302 302 302 302 301 300 300 302 302 303 303 304 305
299 299 298 298 299 297 301 297 298 296 301 302 301 299 300 301 301 300 301 303 302 300 298 302 300 301 304 303 303 302 302 302 302 302 301 299 297 298 301 302 303 302 303 305
299 299 295 299 300 300 297 299 298 301 301 301 300 300 301 300 301 300 302 301 299 296 297 299 300 303 303 303 301 301 301 302 301 300 298 296 296 297 299 299 299 301 302 304
299 298 297 297 300 301 301 301 301 301 301 300 299 299 299 298 300 300 300 300 298 299 299 301 303 302 302 302 301 301 301 301 300 299 296 295 297 297 297 299 300 302 301 303
299 298 299 299 298 298 299 299 300 300 299 298 299 299 300 299 299 299 300 301 301 302 303 303 303 302 301 302 301 301 300 299 299 297 295 296 297 298 297 298 299 299 301 301
298 297 297 298 298 298 298 299 298 298 298 299 297 298 297 297 300 297 297 297 299 301 301 301 300 299 300 299 300 301 299 298 296 295 296 295 296 297 296 297 297 298 299 298

GFSNW_850_thetae_006.txt.gz
Theta_e
298 298 298 299 300 302 305 309 312 315 316 316 312 312 314 315 314 311 317 317 320 319 316 319 319 318 317 320 319 321 320 322 321 319 317 316 316 317 317 319 319 313 318 319
298 298 298 298 299 301 303 307 308 312 313 308 309 310 310 310 308 308 311 314 315 312 316 317 320 320 318 319 318 318 319 322 325 324 320 315 316 316 316 316 317 319 320 320
297 298 298 298 298 299 303 307 304 308 310 307 306 305 305 306 305 306 306 306 308 306 307 309 311 313 313 308 313 316 315 318 323 324 321 313 315 312 316 315 319 319 319 318
296 297 297 298 298 299 303 305 306 305 303 303 303 304 304 304 305 305 305 305 306 306 306 306 307 306 306 308 309 313 314 315 314 313 312 312 312 311 310 313 313 314 317 319
296 296 296 297 297 299 301 306 305 305 305 304 303 303 304 305 306 305 305 305 306 305 305 305 306 307 307 307 309 310 310 309 311 312 311 310 309 309 312 312 311 313 318 319
297 298 299 298 299 300 303 303 305 304 304 303 302 302 304 306 304 305 305 305 305 305 305 305 305 306 307 306 306 307 307 309 307 309 308 309 309 309 311 311 312 313 316 318
296 297 298 303 303 302 304 302 303 303 301 303 303 304 303 303 304 304 305 305 305 306 305 305 305 305 305 305 305 306 307 308 307 308 307 310 309 310 311 312 311 315 315 314
295 296 296 297 302 303 303 304 302 303 301 302 302 302 303 303 303 303 304 304 305 304 305 304 304 304 303 304 304 304 305 309 312 311 309 310 310 311 316 316 316 312 311 310
296 297 296 295 296 301 301 302 303 303 303 302 302 303 303 303 302 303 304 304 304 304 304 304 301 304 303 304 304 305 304 307 308 305 303 306 305 309 313 313 313 311 311 310
296 296 296 298 301 299 297 298 302 303 302 302 302 302 302 303 303 304 303 303 304 304 304 305 305 303 304 304 304 303 305 306 307 308 308 309 310 310 308 309 311 310 310 309
295 296 297 302 301 300 296 296 297 300 301 300 301 301 302 302 302 303 303 303 302 303 304 305 301 302 302 304 304 305 305 306 305 306 307 304 310 306 306 306 308 309 310 308
296 297 299 301 299 299 298 298 298 299 301 300 299 299 299 300 300 301 302 302 302 303 303 303 303 303 299 302 303 301 303 304 305 305 303 303 305 305 305 305 304 306 308 308
297 297 299 300 300 301 301 301 301 299 299 299 299 300 300 299 300 300 302 302 302 303 303 303 304 305 299 304 303 302 301 302 305 305 305 304 305 304 304 304 306 305 307 306
298 299 301 301 301 301 301 302 302 301 301 300 300 300 300 300 300 301 301 301 302 302 303 303 304 304 303 302 302 302 303 303 303 303 303 303 303 303 303 303 304 304 305 305
299 300 301 301 300 300 300 300 301 301 301 299 300 300 301 300 300 300 301 301 302 302 303 304 304 303 304 302 303 304 303 303 304 304 303 302 302 303 303 303 304 303 303 304
300 300 300 299 300 301 301 301 300 301 300 302 300 300 301 301 303 302 302 300 301 302 303 304 304 304 303 304 304 303 303 303 303 302 303 303 303 303 303 302 303 304 304 304
300 299 299 299 299 301 301 301 300 302 301 302 300 297 301 301 302 302 303 303 301 302 302 303 303 304 304 303 304 303 303 303 303 303 303 302 302 302 303 303 303 303 305 306
299 299 298 298 299 300 301 302 301 301 302 302 301 300 299 302 302 302 303 304 303 303 304 302 303 303 303 303 302 302 303 303 302 302 302 302 303 304 304 304 304 303 303 303
299 299 298 299 301 301 301 302 302 301 300 300 300 300 299 301 301 300 302 301 303 303 303 304 302 301 303 302 302 302 302 301 302 303 303 303 303 302 302 302 302 302 302 302
299 299 301 301 303 301 301 300 301 300 300 300 298 299 299 300 299 300 301 301 301 303 301 302 303 302 302 302 302 302 302 303 300 301 301 302 302 301 301 301 301 300 301 302
299 299 300 301 299 299 300 300 299 299 299 299 299 299 300 300 300 300 301 300 299 301 298 300 299 300 299 303 302 302 302 301 300 301 302 301 301 301 300 299 298 298 300 302
300 299 299 298 299 298 297 296 298 296 295 300 300 300 300 300 300 301 301 303 302 301 299 301 300 298 303 303 302 302 301 300 300 300 301 301 300 299 297 296 296 297 300 302
300 299 298 298 298 296 299 293 294 293 299 300 301 298 300 299 300 299 300 301 299 297 299 301 299 301 302 301 301 301 301 300 300 300 300 299 299 297 295 296 296 297 297 297
299 298 297 298 297 297 295 295 297 300 300 301 300 299 299 299 300 300 301 298 299 298 297 299 301 301 302 302 301 300 300 299 300 299 298 298 297 295 296 295 296 298 298 299
298 298 298 296 298 299 300 300 299 300 300 298 298 296 298 297 300 299 300 300 299 297 298 298 301 301 300 299 298 297 298 297 299 298 297 295 295 296 295 296 296 297 298 299
298 297 298 298 297 296 298 298 299 299 298 298 297 298 299 298 298 299 297 296 297 301 300 299 299 298 297 297 296 296 297 299 297 297 295 294 295 295 296 296 297 297 298 299
297 297 297 298 297 297 297 298 298 298 298 296 297 296 297 295 299 298 294 299 299 298 297 296 296 296 295 295 295 296 298 298 297 294 295 295 295 295 295 295 295 296 297 297

GFSNW_850_thetae_009.txt.gz
Theta_e
298 298 299 299 300 302 306 311 312 311 310 315 310 311 311 311 310 306 307 311 316 316 311 314 317 318 317 311 314 317 318 320 322 321 318 318 317 316 314 319 320 315 317 319
297 298 298 299 299 300 302 307 309 309 313 308 307 304 304 307 304 305 307 307 308 306 310 307 314 307 309 308 307 312 315 318 316 315 316 312 313 312 312 312 313 318 320 319
297 297 298 298 298 299 301 305 300 303 306 304 302 304 303 305 304 305 305 305 306 305 306 306 306 305 306 306 307 308 311 314 314 315 315 313 313 312 312 312 312 311 312 312
296 296 297 297 297 298 300 303 305 304 300 300 303 303 303 303 304 305 305 304 305 304 304 304 304 305 305 306 306 309 309 309 308 308 308 308 308 312 311 310 310 311 309 308
296 296 296 296 297 297 299 303 304 303 303 303 302 301 301 303 305 305 304 303 304 304 304 304 305 304 304 305 305 305 306 307 307 306 306 306 307 307 308 309 309 308 310 311
296 296 295 295 296 297 301 303 302 302 301 301 301 300 302 304 302 302 304 304 303 304 303 304 304 304 304 304 304 304 304 304 304 306 305 305 307 305 305 306 307 308 311 312
295 296 295 295 295 300 303 303 302 303 300 302 302 303 304 302 302 302 303 303 302 303 304 304 304 304 303 303 303 303 303 304 305 307 307 308 306 305 307 308 308 311 313 312
296 298 300 297 295 297 301 302 303 303 299 301 301 301 301 301 302 302 302 302 303 303 303 303 303 302 301 301 302 302 302 303 306 304 305 305 305 306 307 308 310 311 304 307
295 297 297 300 299 298 297 298 302 302 302 300 301 302 302 301 301 302 302 302 302 302 303 305 304 303 302 302 302 303 303 303 303 304 306 306 305 304 305 305 308 307 305 308
295 295 296 298 302 300 300 297 297 301 301 300 301 301 300 301 301 301 301 300 302 302 300 302 302 303 302 305 303 302 301 301 303 302 302 303 303 305 305 306 305 304 305 307
295 295 296 296 299 299 300 300 299 298 299 299 299 300 300 300 301 301 300 300 300 300 298 300 299 304 302 302 301 303 301 299 301 299 300 302 305 304 305 305 305 305 305 304
295 295 296 298 298 300 301 302 301 301 301 301 301 300 299 299 299 300 300 301 301 301 302 301 300 300 302 302 302 300 302 302 302 301 303 302 303 303 304 304 304 303 303 304
295 296 298 300 301 301 301 302 302 303 301 300 300 300 300 299 299 299 300 300 301 301 301 301 303 303 297 302 302 300 300 301 303 303 303 303 303 303 303 303 302 302 303 303
295 297 299 300 301 301 300 301 302 302 302 301 301 300 300 300 300 300 300 300 300 300 301 302 302 302 301 302 300 301 302 302 303 303 302 302 302 303 303 302 302 302 302 302
296 299 299 300 300 300 301 301 300 301 301 300 300 300 300 300 300 301 301 300 300 301 302 302 301 302 302 302 303 303 303 303 303 303 302 302 302 302 302 302 302 302 302 302
297 299 300 299 300 300 301 300 300 300 301 300 301 300 301 301 303 302 301 301 300 300 301 302 302 302 302 303 302 302 303 303 303 303 303 302 302 302 301 301 302 302 302 303
297 299 299 299 299 300 302 300 300 300 301 300 300 298 301 300 301 302 301 302 302 300 301 302 302 302 302 303 304 303 303 302 302 302 302 301 302 302 303 303 302 301 302 302
298 299 299 299 298 299 301 301 301 302 301 301 300 299 299 300 302 301 300 301 302 302 303 303 303 303 301 303 301 302 302 301 301 302 301 300 301 301 302 301 301 301 301 301
299 299 299 299 301 301 301 301 302 302 301 300 299 298 294 300 300 299 299 301 302 302 303 303 303 303 303 302 301 301 301 301 302 301 301 300 300 301 301 300 300 300 299 299
299 298 300 301 301 301 300 299 300 300 300 299 299 299 300 299 299 299 299 300 301 301 300 301 303 300 302 302 302 302 302 301 301 300 300 299 299 300 300 300 299 299 298 296
299 299 300 300 300 298 299 300 300 299 299 299 298 298 298 299 297 297 300 300 298 301 297 299 299 297 298 302 302 301 300 300 300 300 300 298 299 300 299 299 298 298 296 295
299 299 299 299 298 298 298 297 297 297 297 298 299 300 299 299 299 300 300 302 300 301 298 301 300 297 301 301 301 301 301 300 298 298 298 298 299 298 298 297 297 296 295 295
299 299 298 297 297 297 298 294 293 294 299 299 300 298 300 299 299 299 299 300 300 297 300 300 297 300 300 300 300 300 298 297 296 297 297 298 298 297 296 295 295 295 296 295
299 298 297 297 297 297 294 294 296 299 299 300 299 297 298 298 297 298 300 297 298 298 300 297 297 300 298 297 297 296 296 295 295 296 298 298 296 294 295 295 295 295 295 295
298 297 297 295 296 297 298 299 299 299 300 299 298 296 296 295 299 298 297 299 297 298 296 294 298 297 296 296 295 294 294 294 295 295 297 296 295 294 295 295 295 294 294 295
298 297 298 297 296 296 297 298 298 299 299 298 297 293 296 295 295 298 296 295 296 294 298 297 296 295 295 294 294 294 294 294 295 297 296 294 294 294 294 294 294 294 295 297
297 297 297 297 297 297 297 298 298 299 298 295 295 295 293 294 296 297 292 298 298 296 295 295 294 294 293 293 293 294 294 295 295 295 294 294 294 295 294 293 293 294 294 296